Regional Weather Roundup
Issued by NWS Midland/Odessa, TX

Skip options and go directly to product.
Home | Oldest Version | Previous Version | Current Version | All | Text Only | Save Text | Print | Product List | Glossary Off

Skip product version selection by date and time.   

037
ASUS44 KMAF 230010
RWRMAF
MIDLAND AREA WEATHER ROUNDUP
NATIONAL WEATHER SERVICE MIDLAND TX
600 PM CST MON DEC 22 2014

...IN SOUTHWEST TEXAS AND SOUTHEAST NEW MEXICO...

CITY           SKY/WX    TMP DP  RH WIND       PRES   REMARKS
ALPINE         CLEAR     60  29  30 W8        29.77S
ANDREWS        FAIR      54  33  45 E7        29.65R
ARTESIA        CLOUDY    63  32  31 SW14      29.60F
BIG SPRING     CLOUDY    59  33  38 NE9       29.68S
CARLSBAD       CLOUDY    66  31  27 W20G26    29.60R
DRYDEN           N/A     74  30  19 SW13      29.59F
FORT STOCKTON  CLEAR     66  30  26 NW3       29.64S
GUAD PASS      NOT AVBL
HOBBS          PTCLDY    54  32  43 NE9       29.64R
MARFA          CLEAR     57  28  33 SW12      29.76F
MIDLAND AIRPK  PTCLDY    58  35  42 E9        29.66R
MIDLAND INTL   PTCLDY    58  35  42 E9        29.65R
ODESSA         PTCLDY    57  33  40 E8        29.65R
PECOS          PTCLDY    67  32  27 SW16      29.62S
PRESIDIO       FAIR      69  32  25 E7        29.67F
SEMINOLE       MOCLDY    53  32  45 E6        29.66R
SNYDER         CLOUDY    54  35  48 E6        29.68R
WINK           MOCLDY    67  30  25 SW10      29.59F
$$
...OTHER STATIONS IN TEXAS...

CITY           SKY/WX    TMP DP  RH WIND       PRES   REMARKS
ABILENE        CLOUDY    57  36  45 N9        29.69R
AMARILLO       CLOUDY    41  29  62 N8        29.75R WCI  36
AUSTIN         CLOUDY    63  55  75 S7        29.62R
BROWNSVILLE    PTCLDY    70  64  81 S12       29.65S
CORPUS CHRISTI PTCLDY    68  62  81 SE6       29.63R
DALLAS FTW     CLOUDY    57  44  62 NW7       29.62F
DEL RIO        MOCLDY    58  52  80 S5        29.60F
EL PASO        PTCLDY    65  32  29 NW6       29.71R
HOUSTON INT    CLOUDY    68  61  78 SW3       29.62S
LUBBOCK        CLOUDY    49  27  42 NE8       29.66F
SAN ANGELO     CLOUDY    62  35  36 NE6       29.64R
SAN ANTONIO    CLOUDY    66  54  65 S7        29.63S
WACO           CLOUDY    61  43  51 NW9       29.65R
WICHITA FALLS  NOT AVBL
$$
...OTHER LOCATIONS IN NEW MEXICO...

CITY           SKY/WX    TMP DP  RH WIND       PRES   REMARKS
ALAMAGORDO     PTCLDY    59  32  36 S6        29.70S
ALBUQUERQUE    CLOUDY    45  36  70 NW20G26   29.73F WCI  37
CANNON AFB     LGT RAIN  45  28  53 NE13G21   29.71R WCI  38
CLOVIS         CLOUDY    45  25  45 NE17      29.68S WCI  37
HOLLOMAN AFB   PTCLDY    62  33  34 S6        29.68S
ROSWELL        CLOUDY    65  28  24 W10       29.58F
RUIDOSO        MOCLDY    50  27  40 W16G26    29.72F
SANTA FE       PTCLDY    46  20  35 NW28G40   29.68R WCI  37
TRUTH OR CONSE CLEAR     62  26  25 NW20G37   29.72S
TUCUMCARI      FLURRIES  35  32  88 NE16      29.74R WCI  25
$$

USA.gov is the U.S. government's official web portal to all federal, state and local government web resources and services.